Location: Berbisdorf
(50.7638°N, 12.9442°E)
Time: 11:54:45
(UTC+00:00)

STARLINK-1317 - Pass Details

Date: 08 October 2020
Orbit: 549 x 550 km, 53.0° (Epoch: 27 October)

Event Time Altitude Azimuth Distance (km) Brightness Sun altitude
Exits shadow 02:11:59 17° 115° (ESE) 1,415 6.0 -29.6°
Drops below altitude 10° 02:13:50 10° 90° (E) 1,824 7.0 -29.3°
Sets 02:16:33 0° 73° (ENE) 2,721 8.3 -28.9°
